Location: Baia Mare
(47.6567°N, 23.5850°E)
Time: 19:12:42
(UTC+03:00)

ISS - Pass Details

Date: 11 September 2018
Orbit: 403 x 408 km, 51.6° (Epoch: 23 September)

Event Time Altitude Azimuth Distance (km) Brightness Sun altitude
Exits shadow 04:39:37 39° 3° (N) 627 -2.7 -22.2°
Drops below altitude 10° 04:42:38 10° 69° (ENE) 1,464 0.1 -21.8°
Sets 04:44:48 0° 78° (ENE) 2,323 1.2 -21.5°
